GLONASS-K 2 (40315 NORAD) Tracking and Keplerian Element Data

This shows tracking and keplerian element data for the satellite.

Feedback or suggestion? Click here.




ElementValue
Catalog40315
NameGLONASS-K 2
Epoch Orbit7406
Epoch Day158.34032514
Epoch Year2024
RAAN216.0536
Inclination63.6211
Eccentricity0.0020641
Argument of Perigee210.1806
Mean Anonmoly149.7872
Mean Motion2.13101453
Decay Rate6.3E-07
L11 40315U 14075A 24158.34032514 .00000063 00000+0 00000+0 0 9999
L22 40315 63.6211 216.0536 0020641 210.1806 149.7872 2.13101453 74063



Live tracking and technical data element details for GLONASS-K 2 (NORAD 40315). GLONASS-K 2 can be tracked NOW for your location showing map with azimuth and elevation plus other details from your city location.







IsCatalogInMostPopularTable: catalog: 40315, numindb: 630
Update: records affected: 1



GetName: 40315 GLONASS-K 2

Hit Count: updated at: Mon, 17 Jun 2024 22:51:19 GMT